Snowfall_Accumulation
0.0 0.0 0.0 0.0 0.0 0.0 0.0 0.0 0.0 nan nan nan nan nan nan nan nan nan nan nan nan nan nan nan nan nan nan
0.0 0.0 0.0 0.0 0.0 0.0 0.0 0.0 0.0 nan nan nan nan nan nan nan nan nan nan nan nan nan nan nan nan nan nan
0.0 0.0 0.0 0.0 0.0 0.0 0.0 0.0 0.0 nan nan nan nan nan nan nan nan nan nan nan nan nan nan nan nan nan nan
0.0 0.0 0.0 0.0 0.0 0.0 0.0 0.0 0.0 0.0 nan nan nan nan nan nan nan nan nan nan nan nan nan nan nan nan nan
0.0 0.0 0.0 0.0 0.0 0.0 0.0 0.0 0.0 0.0 0.0 0.0 0.0 0.0 0.0 nan nan nan nan nan nan nan nan nan nan nan nan
0.0 0.0 0.0 0.0 0.0 0.0 0.0 0.1 0.3 0.0 0.0 0.0 0.0 0.0 0.0 0.0 nan nan nan nan nan nan nan nan nan nan nan
0.0 0.0 0.0 0.0 0.0 0.0 0.0 0.1 0.2 0.2 0.1 0.7 0.0 0.0 0.0 0.0 nan nan nan nan nan nan nan nan nan nan nan
0.0 0.0 0.0 0.0 0.0 0.0 0.0 0.0 0.2 0.2 0.0 2.3 0.5 0.3 0.0 0.0 nan nan nan nan nan nan nan nan nan nan nan
nan nan nan nan nan 0.0 0.3 0.9 1.7 0.9 0.3 0.8 1.0 1.0 0.8 0.1 0.0 nan nan nan nan nan nan nan nan nan 0.0
1.1 1.0 nan nan nan 0.5 0.8 1.8 1.8 2.4 0.7 3.5 1.4 1.7 4.0 1.1 0.4 0.0 0.0 nan nan nan nan nan nan 0.0 0.0
2.2 1.9 1.6 1.2 0.9 0.4 0.1 0.7 2.4 2.2 0.4 1.8 2.3 1.8 2.0 1.7 0.9 0.8 0.2 0.0 0.0 0.0 nan nan nan 0.0 0.3
2.0 1.5 1.3 1.2 0.8 0.7 0.2 0.4 0.6 0.4 0.1 0.2 7.7 2.8 4.5 4.9 2.6 1.2 1.2 0.5 0.1 0.4 0.3 nan nan nan nan
0.7 0.7 0.7 0.6 0.4 0.7 0.5 0.5 0.4 0.3 0.1 0.3 1.8 1.0 2.8 5.6 4.5 2.5 2.9 2.5 1.5 1.3 1.4 0.9 0.6 0.7 0.7
0.8 0.5 0.5 1.5 1.7 1.1 2.2 2.0 4.1 2.5 0.9 0.5 0.5 0.7 8.4 3.4 4.2 6.1 2.2 7.1 2.1 1.6 1.4 1.2 0.9 0.8 1.0
1.6 1.7 1.5 1.8 2.0 1.6 2.7 4.0 8.1 6.0 5.9 4.3 2.8 2.0 3.3 4.4 11.2 3.2 2.8 2.9 1.8 2.3 3.2 2.2 1.1 0.9 1.1
2.5 2.8 4.2 5.3 5.2 5.5 5.5 6.5 8.9 6.4 7.1 6.9 8.4 12.1 6.9 5.8 3.1 4.4 3.7 3.7 3.1 2.5 2.3 4.9 1.8 0.8 0.9
5.0 6.8 8.0 8.5 8.5 8.1 6.7 6.7 8.5 6.8 7.4 8.7 15.6 16.6 19.2 12.5 2.9 nan 7.2 4.6 4.0 4.7 1.8 2.5 3.4 1.2 0.8
Water_Equivalent
0.00 0.00 0.00 0.00 0.00 0.00 0.00 0.00 0.00 nan nan nan nan nan nan nan nan nan nan nan nan nan nan nan nan nan nan
0.00 0.00 0.00 0.00 0.00 0.00 0.00 0.00 0.00 nan nan nan nan nan nan nan nan nan nan nan nan nan nan nan nan nan nan
0.00 0.00 0.00 0.00 0.00 0.00 0.00 0.00 0.00 nan nan nan nan nan nan nan nan nan nan nan nan nan nan nan nan nan nan
0.00 0.00 0.00 0.00 0.00 0.00 0.00 0.00 0.00 0.00 nan nan nan nan nan nan nan nan nan nan nan nan nan nan nan nan nan
0.00 0.00 0.00 0.00 0.00 0.00 0.00 0.00 0.00 0.00 0.00 0.00 0.00 0.00 0.00 nan nan nan nan nan nan nan nan nan nan nan nan
0.00 0.00 0.00 0.00 0.00 0.00 0.00 0.04 0.13 0.00 0.00 0.00 0.00 0.00 0.00 0.00 nan nan nan nan nan nan nan nan nan nan nan
0.00 0.00 0.00 0.00 0.00 0.00 0.00 0.05 0.08 0.07 0.02 0.26 0.01 0.01 0.00 0.00 nan nan nan nan nan nan nan nan nan nan nan
0.00 0.00 0.00 0.00 0.00 0.00 0.00 0.00 0.07 0.09 0.00 0.70 0.21 0.13 0.01 0.00 nan nan nan nan nan nan nan nan nan nan nan
nan nan nan nan nan 0.01 0.12 0.33 0.55 0.32 0.13 0.29 0.38 0.40 0.33 0.04 0.00 nan nan nan nan nan nan nan nan nan 0.00
0.20 0.18 nan nan nan 0.09 0.16 0.50 0.54 0.66 0.25 0.94 0.42 0.48 0.95 0.38 0.14 0.01 0.00 nan nan nan nan nan nan 0.00 0.00
0.37 0.36 0.29 0.22 0.18 0.09 0.03 0.22 0.74 0.68 0.13 0.60 0.71 0.49 0.57 0.46 0.27 0.27 0.09 0.02 0.00 0.00 nan nan nan 0.00 0.06
0.34 0.26 0.27 0.29 0.24 0.21 0.07 0.14 0.20 0.12 0.04 0.05 2.63 0.77 1.19 1.12 0.58 0.33 0.35 0.16 0.04 0.12 0.08 nan nan nan nan
0.17 0.21 0.21 0.18 0.11 0.18 0.11 0.13 0.12 0.08 0.02 0.10 0.65 0.28 0.86 1.33 0.96 0.56 0.64 0.56 0.36 0.33 0.32 0.22 0.16 0.17 0.18
0.20 0.14 0.14 0.43 0.43 0.30 0.55 0.47 0.91 0.61 0.22 0.15 0.16 0.22 2.09 0.85 0.99 1.13 0.47 1.33 0.44 0.34 0.31 0.26 0.20 0.19 0.23
0.36 0.34 0.30 0.39 0.43 0.38 0.63 0.90 1.50 1.08 1.04 0.95 0.67 0.52 0.82 0.95 2.01 0.64 0.54 0.54 0.40 0.49 0.59 0.43 0.22 0.18 0.23
0.58 0.63 0.85 1.06 1.00 1.16 1.21 1.24 1.53 1.08 1.21 1.28 1.53 2.15 1.47 1.27 0.67 0.87 0.73 0.72 0.60 0.48 0.44 0.90 0.37 0.15 0.15
1.19 1.51 1.71 1.77 1.76 1.50 1.20 1.19 1.46 1.14 1.27 1.56 2.50 2.80 2.82 1.69 0.55 nan 1.42 0.94 0.83 0.84 0.37 0.47 0.69 0.30 0.13
SL_Ratio
nan nan nan nan nan nan nan nan nan nan nan nan nan nan nan nan nan nan nan nan nan nan nan nan nan nan nan
nan nan nan nan nan nan nan nan nan nan nan nan nan nan nan nan nan nan nan nan nan nan nan nan nan nan nan
nan nan nan nan nan nan nan nan nan nan nan nan nan nan nan nan nan nan nan nan nan nan nan nan nan nan nan
nan nan nan nan nan nan nan nan nan nan nan nan nan nan nan nan nan nan nan nan nan nan nan nan nan nan nan
nan nan nan nan nan nan nan nan nan nan nan nan nan nan nan nan nan nan nan nan nan nan nan nan nan nan nan
nan nan nan nan nan nan nan 2.5 2.5 0.0 nan 0.0 nan nan nan nan nan nan nan nan nan nan nan nan nan nan nan
nan nan nan nan nan nan nan 2.5 2.5 2.5 2.6 2.5 2.5 2.6 nan nan nan nan nan nan nan nan nan nan nan nan nan
nan nan nan nan nan nan nan 5.0 2.5 2.5 5.0 3.4 2.5 2.5 2.5 nan nan nan nan nan nan nan nan nan nan nan nan
nan nan nan nan nan 3.2 2.6 2.7 3.1 3.0 2.5 2.8 2.6 2.6 2.5 2.7 nan nan nan nan nan nan nan nan nan nan nan
5.8 5.8 nan nan nan 6.2 5.0 3.7 3.4 3.6 2.6 3.7 3.2 3.4 4.2 2.8 2.8 2.7 nan nan nan nan nan nan nan nan nan
6.0 5.4 5.5 5.7 4.7 4.4 4.4 3.1 3.3 3.2 3.1 3.0 3.3 3.7 3.5 3.8 3.5 2.9 2.8 2.7 nan nan nan nan nan nan 4.2
5.8 5.6 4.7 4.0 3.5 3.1 3.2 2.9 2.8 3.1 2.5 3.1 2.9 3.7 3.8 4.4 4.5 3.7 3.4 3.0 3.1 3.4 4.1 nan nan nan nan
3.9 3.5 3.3 3.2 3.3 3.7 4.3 3.8 3.6 3.3 2.7 3.0 2.8 3.5 3.2 4.2 4.7 4.4 4.5 4.4 4.1 4.1 4.4 4.0 4.0 4.3 4.0
3.7 3.9 3.7 3.4 3.8 3.6 4.1 4.3 4.6 4.2 4.2 3.4 3.2 3.2 4.0 3.9 4.3 5.4 4.6 5.3 4.7 4.8 4.4 4.5 4.6 4.4 4.4
4.4 5.1 5.1 4.5 4.6 4.3 4.3 4.4 5.4 5.5 5.7 4.6 4.2 3.9 4.0 4.6 5.6 5.0 5.3 5.3 4.6 4.6 5.4 5.2 5.1 4.9 4.8
4.3 4.4 4.9 5.0 5.2 4.7 4.6 5.3 5.8 5.9 5.9 5.4 5.5 5.6 4.7 4.5 4.6 5.1 5.1 5.1 5.1 5.2 5.2 5.5 5.0 5.2 5.7
4.2 4.5 4.7 4.8 4.8 5.4 5.6 5.7 5.8 5.9 5.9 5.6 6.3 5.9 6.8 7.4 5.2 nan 5.1 4.9 4.8 5.6 4.9 5.3 4.9 4.0 5.6